Location: Carter Cabin
(41.0271°N, 122.9339°W)
Time: 15:26:37
(UTC+00:00)

ATLAS 2AS CENTAUR R/B - Pass Details

Date: 13 April 2024
Orbit: 1015 x 1195 km, 63.7° (Epoch: 21 May)

Event Time Altitude Azimuth Distance (km) Brightness Sun altitude
Exits shadow 12:37:42 - 220° (SW) 3,168 4.6 -11.0°
Reaches altitude 10° 12:37:54 10° 220° (SW) 3,097 4.6 -11.0°
Maximum altitude 12:45:20 75° 306° (NW) 1,196 2.9 -9.7°
Drops below altitude 10° 12:52:32 10° 32° (NNE) 3,001 5.9 -8.4°
Sets 12:55:11 0° 34° (NE) 3,936 6.6 -8.0°
